Weather Roundup
Issued by NWS Springfield, MO

Home | Current Version | Previous Version | Text Only | Print | Product List | Glossary On
Versions: 1 2 3 4 5 6 7 8 9 10 11 12 13 14 15 16 17 18 19 20 21 22 23 24 25 26 27 28 29 30 31 32 33 34 35 36 37 38 39 40 41 42 43 44 45 46 47 48 49 50
754
NZUS99 KSGF 191657
HRRSGF

HOURLY WEATHER
NATIONAL WEATHER SERVICE SPRINGFIELD MO
1100 AM CST MON FEB 19 2018

......SGF CWA......

CITY           SKY/WX    TMP DP  RH WIND       PRES   REMARKS
SPRINGFIELD    CLOUDY    60  58  92 S13       29.83F THUNDER
JOPLIN         LGT RAIN  63  62  97 S23G32    29.79S
WEST PLAINS    LGT RAIN  61  57  87 S12G25    29.95S
ROLLA          RAIN      59  57  93 S18G28    29.87R
BRANSON        LGT RAIN  64  57  77 S18G30    29.91R

......SURROUNDING SGF CWA......

CITY           SKY/WX    TMP DP  RH WIND       PRES   REMARKS
CHANUTE        LGT RAIN  65  62  90 S20G30    29.73S
PARSONS        LGT RAIN  63  62  97 S17G26    29.76R FOG
COFFEYVILLE    RAIN      62  61  96 SW14      29.76R FOG
EMPORIA        CLOUDY    34  30  85 NW15      29.78R WCI  24
ROGERS AR      LGT RAIN  61  61 100 S22G29    29.87F
HARRISON AR    CLOUDY    63  58  83 S16G29    29.92R

......KANSAS AND MISSOURI......

CITY           SKY/WX    TMP DP  RH WIND       PRES   REMARKS
KANSAS CTY INT CLOUDY    36  34  92 NW13      29.75R WCI  27
SEDALIA        CLOUDY    66  59  78 S18G28    29.77S
ST JOSEPH      CLOUDY    33  33 100 NW13      29.77R FOG     WCI  24
ST LOUIS       LGT RAIN  60  57  89 S21G32    29.89R
WICHITA        FRZ RAIN  31  28  89 N16       29.82R WCI  20
TOPEKA         CLOUDY    35  32  88 W9        29.79R WCI  28
OLATHE         CLOUDY    50  45  83 NW14G21   29.73R

......TENNESSEE......

CITY           SKY/WX    TMP DP  RH WIND       PRES   REMARKS
MEMPHIS        NOT AVBL
NASHVILLE      PTSUNNY   72  59  63 S18G30    30.17F

......ARKANSAS.......

CITY           SKY/WX    TMP DP  RH WIND       PRES   REMARKS
FAYETTEVILLE   LGT RAIN  62  61  96 S16G23    29.89S FOG
FT SMITH       CLOUDY    70  60  70 S12       29.90S
LITTLE ROCK    CLOUDY    68  62  81 SW10      30.05R

......OKLAHOMA.......

CITY           SKY/WX    TMP DP  RH WIND       PRES   REMARKS
TULSA          PTSUNNY   69  64  84 S28G35    29.74F
PONCA CITY     CLOUDY    45  42  89 N9        29.77R
MCALESTER      CLOUDY    65  63  93 S8        29.86S
OKLAHOMA CITY  CLOUDY    68  60  75 S22       29.75S

......IOWA............

CITY           SKY/WX    TMP DP  RH WIND       PRES   REMARKS
DES MOINES     NOT AVBL
QUAD CITIES    LGT RAIN  51  50  96 S8        29.70F

......ILLINOIS........

CITY           SKY/WX    TMP DP  RH WIND       PRES   REMARKS
QUINCY         NOT AVBL
CHICAGO        CLOUDY    44  42  93 SE7       29.81F FOG




USA.gov is the U.S. government's official web portal to all federal, state and local government web resources and services.